Location: Newark
(45.5167°N, 11.1667°E)
Time: 11:26:29
(UTC+00:00)

deb Explorer IX - Visible Passes

Search period start: 13 December 2019 00:00
Search period end: 23 December 2019 00:00
Orbit: 546 x 1104 km, 38.8° (Epoch: 12 December)

Date Brightness Start Highest point End Pass type
(mag) Time Alt. Az. Time Alt. Az. Time Alt. Az.
13 Dec ? 17:01:37 10° WSW 17:07:22 46° S 17:12:54 14° ESE visible
13 Dec ? 18:48:27 10° W 18:54:09 32° SSW 18:54:16 32° SSW visible
14 Dec ? 16:39:39 10° WSW 16:45:14 45° S 16:51:38 10° ESE visible
14 Dec ? 18:26:26 10° W 18:31:58 31° SSW 18:33:40 28° S visible
15 Dec ? 16:17:42 10° WSW 16:23:06 44° S 16:29:20 10° ESE visible
15 Dec ? 18:04:27 10° W 18:09:48 30° SSW 18:13:12 20° SSE visible
15 Dec ? 19:53:25 10° WSW 19:54:36 12° SW 19:54:36 12° SW visible
16 Dec ? 17:42:28 10° W 17:47:38 29° SSW 17:52:54 12° SE visible
16 Dec ? 19:31:37 10° WSW 19:33:57 12° SW 19:34:19 12° SSW visible
17 Dec ? 17:20:31 10° WSW 17:25:29 28° SSW 17:31:03 10° SE visible
17 Dec ? 19:09:55 10° SW 19:11:47 11° SW 19:13:42 10° SSW visible
18 Dec ? 16:58:34 10° WSW 17:03:21 27° SSW 17:08:42 10° SE visible
18 Dec ? 18:48:27 10° SW 18:49:37 10° SW 18:50:50 10° SSW visible
19 Dec ? 16:36:39 10° WSW 16:41:14 26° SSW 16:46:22 10° SSE visible
20 Dec ? 16:14:45 10° WSW 16:19:07 25° SSW 16:24:00 10° SSE visible
